owner,sensor,date,latitude,longitude,vertical_datum,direction_of_sea_water_velocity,sea_water_speed,upward_sea_water_velocity,qcFlag 
TABS,ioos:station:wmo:42051:1,2009-02-01T00:00:00Z,29.6350,-93.6417,2.0,96.64965134,23.9209218,-99999.0,'11111222,11111222,99999999' 
TABS,ioos:station:wmo:42051:1,2009-02-01T00:30:00Z,29.6350,-93.6417,2.0,103.5406649,21.31240249,-99999.0,'11111222,11111222,99999999' 
TABS,ioos:station:wmo:42051:1,2009-02-01T01:00:00Z,29.6350,-93.6417,2.0,95.06148047,23.80281706,-99999.0,'11111222,11111222,99999999' 
TABS,ioos:station:wmo:42051:1,2009-02-01T01:30:00Z,29.6350,-93.6417,2.0,95.96952772,23.55774607,-99999.0,'11111222,11111222,99999999' 
TABS,ioos:station:wmo:42051:1,2009-02-01T02:00:00Z,29.6350,-93.6417,2.0,90.47372445,21.77074413,-99999.0,'11111222,11111222,99999999' 
TABS,ioos:station:wmo:42051:1,2009-02-01T02:30:00Z,29.6350,-93.6417,2.0,106.974203,22.94978213,-99999.0,'11111222,11111222,99999999' 
TABS,ioos:station:wmo:42051:1,2009-02-01T03:00:00Z,29.6350,-93.6417,2.0,100.1840094,23.75425015,-99999.0,'11111222,11111222,99999999' 
TABS,ioos:station:wmo:42051:1,2009-02-01T03:30:00Z,29.6350,-93.6417,2.0,101.5067224,20.55309222,-99999.0,'11111222,11111222,99999999' 
TABS,ioos:station:wmo:42051:1,2009-02-01T04:00:00Z,29.6350,-93.6417,2.0,100.9605117,19.61786176,-99999.0,'11111222,11111222,99999999' 
TABS,ioos:station:wmo:42051:1,2009-02-01T04:30:00Z,29.6350,-93.6417,2.0,89.89148565,21.12003788,-99999.0,'11111222,11111222,99999999' 
TABS,ioos:station:wmo:42051:1,2009-02-01T05:00:00Z,29.6350,-93.6417,2.0,79.30027912,19.33618628,-99999.0,'11111222,11111222,99999999' 
TABS,ioos:station:wmo:42051:1,2009-02-01T05:30:00Z,29.6350,-93.6417,2.0,83.7965666,20.82192354,-99999.0,'11111222,11111222,99999999' 
TABS,ioos:station:wmo:42051:1,2009-02-01T06:00:00Z,29.6350,-93.6417,2.0,83.55793797,19.25155838,-99999.0,'11111222,11111222,99999999' 
TABS,ioos:station:wmo:42051:1,2009-02-01T06:30:00Z,29.6350,-93.6417,2.0,67.17413351,17.96703927,-99999.0,'11111222,11111222,99999999' 
TABS,ioos:station:wmo:42051:1,2009-02-01T07:00:00Z,29.6350,-93.6417,2.0,72.85242022,19.70596356,-99999.0,'11111222,11111222,99999999' 
TABS,ioos:station:wmo:42051:1,2009-02-01T07:30:00Z,29.6350,-93.6417,2.0,74.80879169,20.45475984,-99999.0,'11111222,11111222,99999999' 
TABS,ioos:station:wmo:42051:1,2009-02-01T08:00:00Z,29.6350,-93.6417,2.0,81.04954321,17.48288592,-99999.0,'11111222,11111222,99999999' 
TABS,ioos:station:wmo:42051:1,2009-02-01T08:30:00Z,29.6350,-93.6417,2.0,76.07014295,14.3726859,-99999.0,'11111222,11111222,99999999' 
TABS,ioos:station:wmo:42051:1,2009-02-01T09:00:00Z,29.6350,-93.6417,2.0,68.00725074,12.22996321,-99999.0,'11111222,11111222,99999999' 
TABS,ioos:station:wmo:42051:1,2009-02-01T09:30:00Z,29.6350,-93.6417,2.0,72.14292062,12.2291496,-99999.0,'11111222,11111222,99999999' 
TABS,ioos:station:wmo:42051:1,2009-02-01T10:00:00Z,29.6350,-93.6417,2.0,56.942737,15.06934969,-99999.0,'11111222,11111222,99999999' 
TABS,ioos:station:wmo:42051:1,2009-02-01T10:30:00Z,29.6350,-93.6417,2.0,59.18261363,14.77636627,-99999.0,'11111222,11111222,99999999' 
TABS,ioos:station:wmo:42051:1,2009-02-01T11:00:00Z,29.6350,-93.6417,2.0,63.22394831,15.78227487,-99999.0,'11111222,11111222,99999999' 
TABS,ioos:station:wmo:42051:1,2009-02-01T11:30:00Z,29.6350,-93.6417,2.0,55.8325586,12.98043528,-99999.0,'11111222,11111222,99999999' 
TABS,ioos:station:wmo:42051:1,2009-02-01T12:00:00Z,29.6350,-93.6417,2.0,61.75159937,11.87417366,-99999.0,'11111222,11111222,99999999' 
TABS,ioos:station:wmo:42051:1,2009-02-01T12:30:00Z,29.6350,-93.6417,2.0,63.41527424,12.98261145,-99999.0,'11111222,11111222,99999999' 
TABS,ioos:station:wmo:42051:1,2009-02-01T13:00:00Z,29.6350,-93.6417,2.0,56.14422571,14.37788927,-99999.0,'11111222,11111222,99999999' 
TABS,ioos:station:wmo:42051:1,2009-02-01T13:30:00Z,29.6350,-93.6417,2.0,67.2630191,14.67003067,-99999.0,'11111222,11111222,99999999' 
TABS,ioos:station:wmo:42051:1,2009-02-01T14:00:00Z,29.6350,-93.6417,2.0,63.91829608,15.37575039,-99999.0,'11111222,11111222,99999999' 
TABS,ioos:station:wmo:42051:1,2009-02-01T14:30:00Z,29.6350,-93.6417,2.0,61.83934358,14.13295794,-99999.0,'11111222,11111222,99999999' 
TABS,ioos:station:wmo:42051:1,2009-02-01T15:00:00Z,29.6350,-93.6417,2.0,66.5442597,12.28515364,-99999.0,'11111222,11111222,99999999' 
TABS,ioos:station:wmo:42051:1,2009-02-01T15:30:00Z,29.6350,-93.6417,2.0,68.08033207,12.59017077,-99999.0,'11111222,11111222,99999999' 
TABS,ioos:station:wmo:42051:1,2009-02-01T16:00:00Z,29.6350,-93.6417,2.0,33.17111356,9.796407505,-99999.0,'11133222,11111222,99999999' 
TABS,ioos:station:wmo:42051:1,2009-02-01T16:30:00Z,29.6350,-93.6417,2.0,47.68277265,11.48185525,-99999.0,'11111222,11111222,99999999' 
TABS,ioos:station:wmo:42051:1,2009-02-01T17:00:00Z,29.6350,-93.6417,2.0,52.78781191,9.706173293,-99999.0,'11133222,11111222,99999999' 
TABS,ioos:station:wmo:42051:1,2009-02-01T17:30:00Z,29.6350,-93.6417,2.0,43.01357471,12.03511944,-99999.0,'11111222,11111222,99999999' 
TABS,ioos:station:wmo:42051:1,2009-02-01T18:00:00Z,29.6350,-93.6417,2.0,36.11512988,8.652751008,-99999.0,'11133222,11111222,99999999' 
TABS,ioos:station:wmo:42051:1,2009-02-01T18:30:00Z,29.6350,-93.6417,2.0,39.92940553,10.08036706,-99999.0,'11111222,11111222,99999999' 
TABS,ioos:station:wmo:42051:1,2009-02-01T19:00:00Z,29.6350,-93.6417,2.0,47.44186366,11.78402733,-99999.0,'11111222,11111222,99999999' 
TABS,ioos:station:wmo:42051:1,2009-02-01T19:30:00Z,29.6350,-93.6417,2.0,39.51044984,11.67839886,-99999.0,'11111222,11111222,99999999' 
TABS,ioos:station:wmo:42051:1,2009-02-01T20:00:00Z,29.6350,-93.6417,2.0,25.0741577,11.51517694,-99999.0,'11111222,11111222,99999999' 
TABS,ioos:station:wmo:42051:1,2009-02-01T20:30:00Z,29.6350,-93.6417,2.0,38.45277627,12.52677931,-99999.0,'11111222,11111222,99999999' 
TABS,ioos:station:wmo:42051:1,2009-02-01T21:00:00Z,29.6350,-93.6417,2.0,26.31764426,9.315546146,-99999.0,'11133222,11111222,99999999' 
TABS,ioos:station:wmo:42051:1,2009-02-01T21:30:00Z,29.6350,-93.6417,2.0,27.47457784,8.171621626,-99999.0,'11133222,11111222,99999999' 
TABS,ioos:station:wmo:42051:1,2009-02-01T22:00:00Z,29.6350,-93.6417,2.0,11.59235876,7.56429111,-99999.0,'11133222,11111222,99999999' 
TABS,ioos:station:wmo:42051:1,2009-02-01T22:30:00Z,29.6350,-93.6417,2.0,5.542065178,6.420007788,-99999.0,'11133222,11111222,99999999' 
TABS,ioos:station:wmo:42051:1,2009-02-01T23:00:00Z,29.6350,-93.6417,2.0,354.2216554,7.548357437,-99999.0,'11133222,11111222,99999999' 
TABS,ioos:station:wmo:42051:1,2009-02-01T23:30:00Z,29.6350,-93.6417,2.0,358.4927782,8.743025792,-99999.0,'11133222,11111222,99999999' 
TABS,ioos:station:wmo:42051:1,2009-02-02T00:00:00Z,29.6350,-93.6417,2.0,352.2772782,8.557622333,-99999.0,'11133222,11111222,99999999' 
TABS,ioos:station:wmo:42051:1,2009-02-02T00:30:00Z,29.6350,-93.6417,2.0,5.803016554,4.945341242,-99999.0,'11133222,11111222,99999999' 
TABS,ioos:station:wmo:42051:1,2009-02-02T01:00:00Z,29.6350,-93.6417,2.0,359.510516,3.510128203,-99999.0,'11133222,11144222,99999999' 
TABS,ioos:station:wmo:42051:1,2009-02-02T01:30:00Z,29.6350,-93.6417,2.0,17.3318976,4.598804192,-99999.0,'11133222,11111222,99999999' 
TABS,ioos:station:wmo:42051:1,2009-02-02T02:00:00Z,29.6350,-93.6417,2.0,30.88415122,4.928874111,-99999.0,'11133222,11111222,99999999' 
TABS,ioos:station:wmo:42051:1,2009-02-02T02:30:00Z,29.6350,-93.6417,2.0,42.18455513,2.159282288,-99999.0,'11133222,11111222,99999999' 
TABS,ioos:station:wmo:42051:1,2009-02-02T03:00:00Z,29.6350,-93.6417,2.0,161.6452423,2.254706189,-99999.0,'11133222,11111222,99999999' 
TABS,ioos:station:wmo:42051:1,2009-02-02T03:30:00Z,29.6350,-93.6417,2.0,140.1943115,0.312409987,-99999.0,'11133222,11111222,99999999' 
TABS,ioos:station:wmo:42051:1,2009-02-02T04:00:00Z,29.6350,-93.6417,2.0,198.0340329,2.713300573,-99999.0,'11133222,11111222,99999999' 
TABS,ioos:station:wmo:42051:1,2009-02-02T04:30:00Z,29.6350,-93.6417,2.0,197.7104911,4.503443127,-99999.0,'11133222,11111222,99999999' 
TABS,ioos:station:wmo:42051:1,2009-02-02T05:00:00Z,29.6350,-93.6417,2.0,199.6464084,5.383400412,-99999.0,'11133222,11111222,99999999' 
TABS,ioos:station:wmo:42051:1,2009-02-02T05:30:00Z,29.6350,-93.6417,2.0,195.237145,5.669303308,-99999.0,'11133222,11111222,99999999' 
TABS,ioos:station:wmo:42051:1,2009-02-02T06:00:00Z,29.6350,-93.6417,2.0,229.005445,5.061106598,-99999.0,'11133222,11111222,99999999' 
TABS,ioos:station:wmo:42051:1,2009-02-02T06:30:00Z,29.6350,-93.6417,2.0,198.8728943,6.615678348,-99999.0,'11133222,11111222,99999999' 
TABS,ioos:station:wmo:42051:1,2009-02-02T07:00:00Z,29.6350,-93.6417,2.0,199.6149457,7.983282533,-99999.0,'11133222,11111222,99999999' 
TABS,ioos:station:wmo:42051:1,2009-02-02T07:30:00Z,29.6350,-93.6417,2.0,199.3440736,4.981214711,-99999.0,'11133222,11111222,99999999' 
TABS,ioos:station:wmo:42051:1,2009-02-02T08:00:00Z,29.6350,-93.6417,2.0,224.9085943,4.447707275,-99999.0,'11133222,11111222,99999999' 
TABS,ioos:station:wmo:42051:1,2009-02-02T08:30:00Z,29.6350,-93.6417,2.0,210.7459213,4.968349827,-99999.0,'11133222,11111222,99999999' 
TABS,ioos:station:wmo:42051:1,2009-02-02T09:00:00Z,29.6350,-93.6417,2.0,238.0648753,5.161133596,-99999.0,'11133222,11111222,99999999' 
TABS,ioos:station:wmo:42051:1,2009-02-02T09:30:00Z,29.6350,-93.6417,2.0,292.0963114,6.141025973,-99999.0,'11133222,11111222,99999999' 
TABS,ioos:station:wmo:42051:1,2009-02-02T10:00:00Z,29.6350,-93.6417,2.0,234.8263738,6.214724451,-99999.0,'11133222,11111222,99999999' 
TABS,ioos:station:wmo:42051:1,2009-02-02T10:30:00Z,29.6350,-93.6417,2.0,252.8968901,8.0248676,-99999.0,'11133222,11111222,99999999' 
TABS,ioos:station:wmo:42051:1,2009-02-02T11:00:00Z,29.6350,-93.6417,2.0,254.2432184,10.82681855,-99999.0,'11111222,11111222,99999999' 
TABS,ioos:station:wmo:42051:1,2009-02-02T13:30:00Z,29.6350,-93.6417,2.0,260.1362254,20.1985544,-99999.0,'11111222,11111222,99999999' 
TABS,ioos:station:wmo:42051:1,2009-02-02T14:00:00Z,29.6350,-93.6417,2.0,252.6060151,23.31616178,-99999.0,'11111222,11111222,99999999' 
TABS,ioos:station:wmo:42051:1,2009-02-02T14:30:00Z,29.6350,-93.6417,2.0,243.9374155,27.51811222,-99999.0,'11111222,11111222,99999999' 
TABS,ioos:station:wmo:42051:1,2009-02-02T15:00:00Z,29.6350,-93.6417,2.0,246.989121,30.8007159,-99999.0,'11111222,11111222,99999999' 
TABS,ioos:station:wmo:42051:1,2009-02-02T15:30:00Z,29.6350,-93.6417,2.0,247.0428348,32.04824644,-99999.0,'11111222,11111222,99999999' 
TABS,ioos:station:wmo:42051:1,2009-02-02T16:00:00Z,29.6350,-93.6417,2.0,236.1299526,35.38449943,-99999.0,'11111222,11111222,99999999' 
TABS,ioos:station:wmo:42051:1,2009-02-02T16:30:00Z,29.6350,-93.6417,2.0,235.1576026,37.24732608,-99999.0,'11111222,11111222,99999999' 
TABS,ioos:station:wmo:42051:1,2009-02-02T17:00:00Z,29.6350,-93.6417,2.0,241.0757141,37.05173815,-99999.0,'11111222,11111222,99999999' 
TABS,ioos:station:wmo:42051:1,2009-02-02T17:30:00Z,29.6350,-93.6417,2.0,249.9389271,31.54376801,-99999.0,'11111222,11111222,99999999' 
TABS,ioos:station:wmo:42051:1,2009-02-02T18:00:00Z,29.6350,-93.6417,2.0,251.7543363,31.52491872,-99999.0,'11111222,11111222,99999999' 
TABS,ioos:station:wmo:42051:1,2009-02-02T18:30:00Z,29.6350,-93.6417,2.0,243.1222337,28.71153949,-99999.0,'11111222,11111222,99999999' 
TABS,ioos:station:wmo:42051:1,2009-02-02T19:00:00Z,29.6350,-93.6417,2.0,243.6356586,28.03599294,-99999.0,'11111222,11111222,99999999' 
TABS,ioos:station:wmo:42051:1,2009-02-02T19:30:00Z,29.6350,-93.6417,2.0,254.4666307,31.10610551,-99999.0,'11111222,11111222,99999999' 
TABS,ioos:station:wmo:42051:1,2009-02-02T20:00:00Z,29.6350,-93.6417,2.0,250.4093745,31.5248299,-99999.0,'11111222,11111222,99999999' 
TABS,ioos:station:wmo:42051:1,2009-02-02T20:30:00Z,29.6350,-93.6417,2.0,258.4371633,27.58988583,-99999.0,'11111222,11111222,99999999' 
TABS,ioos:station:wmo:42051:1,2009-02-02T21:00:00Z,29.6350,-93.6417,2.0,255.4441528,25.42605357,-99999.0,'11111222,11111222,99999999' 
TABS,ioos:station:wmo:42051:1,2009-02-02T21:30:00Z,29.6350,-93.6417,2.0,256.0153514,26.73228759,-99999.0,'11111222,11111222,99999999' 
TABS,ioos:station:wmo:42051:1,2009-02-02T22:00:00Z,29.6350,-93.6417,2.0,263.0051573,27.75656499,-99999.0,'11111222,11111222,99999999' 
TABS,ioos:station:wmo:42051:1,2009-02-02T22:30:00Z,29.6350,-93.6417,2.0,263.5920241,23.47665436,-99999.0,'11111222,11111222,99999999' 
TABS,ioos:station:wmo:42051:1,2009-02-02T23:00:00Z,29.6350,-93.6417,2.0,281.6856596,18.8608934,-99999.0,'11111222,11111222,99999999' 
TABS,ioos:station:wmo:42051:1,2009-02-02T23:30:00Z,29.6350,-93.6417,2.0,286.84144,20.12303407,-99999.0,'11111222,11111222,99999999' 
TABS,ioos:station:wmo:42051:1,2009-02-03T00:00:00Z,29.6350,-93.6417,2.0,267.4105313,19.25965991,-99999.0,'11111222,11111222,99999999' 
TABS,ioos:station:wmo:42051:1,2009-02-03T00:30:00Z,29.6350,-93.6417,2.0,272.5161108,26.65568982,-99999.0,'11111222,11111222,99999999' 
TABS,ioos:station:wmo:42051:1,2009-02-03T01:00:00Z,29.6350,-93.6417,2.0,247.7308854,23.22197451,-99999.0,'11111222,11111222,99999999' 
TABS,ioos:station:wmo:42051:1,2009-02-03T01:30:00Z,29.6350,-93.6417,2.0,255.4903306,14.68845805,-99999.0,'11111222,11111222,99999999' 
TABS,ioos:station:wmo:42051:1,2009-02-03T02:00:00Z,29.6350,-93.6417,2.0,259.1195056,15.94665169,-99999.0,'11111222,11111222,99999999' 
TABS,ioos:station:wmo:42051:1,2009-02-03T02:30:00Z,29.6350,-93.6417,2.0,260.7289559,11.79404935,-99999.0,'11111222,11111222,99999999' 
TABS,ioos:station:wmo:42051:1,2009-02-03T03:00:00Z,29.6350,-93.6417,2.0,252.500254,9.877109901,-99999.0,'11133222,11111222,99999999' 
TABS,ioos:station:wmo:42051:1,2009-02-03T03:30:00Z,29.6350,-93.6417,2.0,242.478345,9.111009823,-99999.0,'11133222,11111222,99999999' 
TABS,ioos:station:wmo:42051:1,2009-02-03T04:00:00Z,29.6350,-93.6417,2.0,245.6631125,16.33117571,-99999.0,'11111222,11111222,99999999' 
TABS,ioos:station:wmo:42051:1,2009-02-03T04:30:00Z,29.6350,-93.6417,2.0,242.3120114,13.92443177,-99999.0,'11111222,11111222,99999999' 
TABS,ioos:station:wmo:42051:1,2009-02-03T05:00:00Z,29.6350,-93.6417,2.0,219.9730039,13.55788332,-99999.0,'11111222,11111222,99999999' 
TABS,ioos:station:wmo:42051:1,2009-02-03T05:30:00Z,29.6350,-93.6417,2.0,239.7506195,11.13626957,-99999.0,'11111222,11111222,99999999' 
TABS,ioos:station:wmo:42051:1,2009-02-03T06:00:00Z,29.6350,-93.6417,2.0,233.6577393,6.294267233,-99999.0,'11133222,11111222,99999999' 
TABS,ioos:station:wmo:42051:1,2009-02-03T06:30:00Z,29.6350,-93.6417,2.0,232.0513013,6.163091757,-99999.0,'11133222,11111222,99999999' 
TABS,ioos:station:wmo:42051:1,2009-02-03T07:00:00Z,29.6350,-93.6417,2.0,264.4861919,5.204075326,-99999.0,'11133222,11111222,99999999' 
TABS,ioos:station:wmo:42051:1,2009-02-03T07:30:00Z,29.6350,-93.6417,2.0,294.9906686,5.207533005,-99999.0,'11133222,11111222,99999999' 
TABS,ioos:station:wmo:42051:1,2009-02-03T08:00:00Z,29.6350,-93.6417,2.0,347.0228455,2.493692042,-99999.0,'11133222,11111222,99999999' 
TABS,ioos:station:wmo:42051:1,2009-02-03T08:30:00Z,29.6350,-93.6417,2.0,259.2798219,4.569748352,-99999.0,'11133222,11111222,99999999' 
TABS,ioos:station:wmo:42051:1,2009-02-03T09:00:00Z,29.6350,-93.6417,2.0,261.1808469,6.000941593,-99999.0,'11133222,11111222,99999999' 
TABS,ioos:station:wmo:42051:1,2009-02-03T09:30:00Z,29.6350,-93.6417,2.0,256.9588485,8.376019341,-99999.0,'11133222,11111222,99999999' 
TABS,ioos:station:wmo:42051:1,2009-02-03T10:00:00Z,29.6350,-93.6417,2.0,269.8203441,9.590046924,-99999.0,'11133222,11111222,99999999' 
TABS,ioos:station:wmo:42051:1,2009-02-03T10:30:00Z,29.6350,-93.6417,2.0,290.1101607,10.81961182,-99999.0,'11111222,11111222,99999999' 
TABS,ioos:station:wmo:42051:1,2009-02-03T11:00:00Z,29.6350,-93.6417,2.0,279.7343955,10.05475509,-99999.0,'11111222,11111222,99999999' 
TABS,ioos:station:wmo:42051:1,2009-02-03T11:30:00Z,29.6350,-93.6417,2.0,270.3220451,12.47019647,-99999.0,'11111222,11111222,99999999' 
TABS,ioos:station:wmo:42051:1,2009-02-03T12:00:00Z,29.6350,-93.6417,2.0,289.8163705,12.59584852,-99999.0,'11111222,11111222,99999999' 
TABS,ioos:station:wmo:42051:1,2009-02-03T12:30:00Z,29.6350,-93.6417,2.0,270.8213431,13.26136117,-99999.0,'11111222,11111222,99999999' 
TABS,ioos:station:wmo:42051:1,2009-02-03T13:00:00Z,29.6350,-93.6417,2.0,263.1250454,15.03811491,-99999.0,'11111222,11111222,99999999' 
TABS,ioos:station:wmo:42051:1,2009-02-03T13:30:00Z,29.6350,-93.6417,2.0,261.9603425,16.94654242,-99999.0,'11111222,11111222,99999999' 
TABS,ioos:station:wmo:42051:1,2009-02-03T14:00:00Z,29.6350,-93.6417,2.0,256.1965429,19.07073412,-99999.0,'11111222,11111222,99999999' 
TABS,ioos:station:wmo:42051:1,2009-02-03T14:30:00Z,29.6350,-93.6417,2.0,260.4975352,18.96013977,-99999.0,'11111222,11111222,99999999' 
TABS,ioos:station:wmo:42051:1,2009-02-03T15:00:00Z,29.6350,-93.6417,2.0,260.537279,14.05118144,-99999.0,'11111222,11111222,99999999' 
TABS,ioos:station:wmo:42051:1,2009-02-03T15:30:00Z,29.6350,-93.6417,2.0,288.5130683,11.6530039,-99999.0,'11111222,11111222,99999999' 
TABS,ioos:station:wmo:42051:1,2009-02-03T16:00:00Z,29.6350,-93.6417,2.0,290.0506109,13.1255057,-99999.0,'11111222,11111222,99999999' 
TABS,ioos:station:wmo:42051:1,2009-02-03T16:30:00Z,29.6350,-93.6417,2.0,288.7964289,12.04219249,-99999.0,'11111222,11111222,99999999' 
TABS,ioos:station:wmo:42051:1,2009-02-03T17:00:00Z,29.6350,-93.6417,2.0,308.3694599,11.38989903,-99999.0,'11111222,11111222,99999999' 
TABS,ioos:station:wmo:42051:1,2009-02-03T17:30:00Z,29.6350,-93.6417,2.0,332.3521716,11.35678211,-99999.0,'11111222,11111222,99999999' 
TABS,ioos:station:wmo:42051:1,2009-02-03T18:00:00Z,29.6350,-93.6417,2.0,335.8627037,11.29780952,-99999.0,'11111222,11111222,99999999' 
TABS,ioos:station:wmo:42051:1,2009-02-03T18:30:00Z,29.6350,-93.6417,2.0,342.7645553,9.821023368,-99999.0,'11133222,11111222,99999999' 
TABS,ioos:station:wmo:42051:1,2009-02-03T19:00:00Z,29.6350,-93.6417,2.0,345.6381676,8.103246263,-99999.0,'11133222,11111222,99999999' 
TABS,ioos:station:wmo:42051:1,2009-02-03T19:30:00Z,29.6350,-93.6417,2.0,355.1628825,5.810697032,-99999.0,'11133222,11111222,99999999' 
TABS,ioos:station:wmo:42051:1,2009-02-03T20:00:00Z,29.6350,-93.6417,2.0,338.6255927,5.734431096,-99999.0,'11133222,11111222,99999999' 
TABS,ioos:station:wmo:42051:1,2009-02-03T20:30:00Z,29.6350,-93.6417,2.0,350.8981526,5.752434267,-99999.0,'11133222,11111222,99999999' 
TABS,ioos:station:wmo:42051:1,2009-02-03T21:00:00Z,29.6350,-93.6417,2.0,359.5957773,4.250105881,-99999.0,'11133222,11144222,99999999' 
TABS,ioos:station:wmo:42051:1,2009-02-03T21:30:00Z,29.6350,-93.6417,2.0,4.179770558,5.213866128,-99999.0,'11133222,11111222,99999999' 
TABS,ioos:station:wmo:42051:1,2009-02-03T22:00:00Z,29.6350,-93.6417,2.0,13.64309333,2.119811312,-99999.0,'11133222,11111222,99999999' 
TABS,ioos:station:wmo:42051:1,2009-02-03T22:30:00Z,29.6350,-93.6417,2.0,76.425841,10.22563445,-99999.0,'11111222,11111222,99999999' 
TABS,ioos:station:wmo:42051:1,2009-02-03T23:00:00Z,29.6350,-93.6417,2.0,82.0160787,11.08747041,-99999.0,'11111222,11111222,99999999' 
TABS,ioos:station:wmo:42051:1,2009-02-03T23:30:00Z,29.6350,-93.6417,2.0,82.25567405,12.39303433,-99999.0,'11111222,11111222,99999999' 
TABS,ioos:station:wmo:42051:1,2009-02-04T00:00:00Z,29.6350,-93.6417,2.0,92.85997885,11.82472833,-99999.0,'11111222,11111222,99999999' 
TABS,ioos:station:wmo:42051:1,2009-02-04T00:30:00Z,29.6350,-93.6417,2.0,86.35975295,11.18256232,-99999.0,'11111222,11111222,99999999' 
TABS,ioos:station:wmo:42051:1,2009-02-04T01:00:00Z,29.6350,-93.6417,2.0,97.23055734,12.79172389,-99999.0,'11111222,11111222,99999999' 
TABS,ioos:station:wmo:42051:1,2009-02-04T01:30:00Z,29.6350,-93.6417,2.0,101.1540557,13.69876272,-99999.0,'11111222,11111222,99999999' 
TABS,ioos:station:wmo:42051:1,2009-02-04T02:00:00Z,29.6350,-93.6417,2.0,106.6910172,13.404779,-99999.0,'11111222,11111222,99999999' 
TABS,ioos:station:wmo:42051:1,2009-02-04T02:30:00Z,29.6350,-93.6417,2.0,117.9163093,14.03299327,-99999.0,'11111222,11111222,99999999' 
TABS,ioos:station:wmo:42051:1,2009-02-04T03:00:00Z,29.6350,-93.6417,2.0,129.1594324,13.96715075,-99999.0,'11111222,11111222,99999999' 
TABS,ioos:station:wmo:42051:1,2009-02-04T03:30:00Z,29.6350,-93.6417,2.0,134.5394345,12.31819792,-99999.0,'11111222,11111222,99999999' 
TABS,ioos:station:wmo:42051:1,2009-02-04T04:00:00Z,29.6350,-93.6417,2.0,146.637513,14.5472506,-99999.0,'11111222,11111222,99999999' 
TABS,ioos:station:wmo:42051:1,2009-02-04T04:30:00Z,29.6350,-93.6417,2.0,145.2534189,16.24715667,-99999.0,'11111222,11111222,99999999' 
TABS,ioos:station:wmo:42051:1,2009-02-04T05:00:00Z,29.6350,-93.6417,2.0,140.0993032,13.12635898,-99999.0,'11111222,11111222,99999999' 
TABS,ioos:station:wmo:42051:1,2009-02-04T05:30:00Z,29.6350,-93.6417,2.0,144.0040572,14.68370866,-99999.0,'11111222,11111222,99999999' 
TABS,ioos:station:wmo:42051:1,2009-02-04T06:00:00Z,29.6350,-93.6417,2.0,147.2150958,16.67636951,-99999.0,'11111222,11111222,99999999' 
TABS,ioos:station:wmo:42051:1,2009-02-04T06:30:00Z,29.6350,-93.6417,2.0,144.6390438,18.45440056,-99999.0,'11111222,11111222,99999999' 
TABS,ioos:station:wmo:42051:1,2009-02-04T07:00:00Z,29.6350,-93.6417,2.0,155.4732292,18.35631771,-99999.0,'11111222,11111222,99999999' 
TABS,ioos:station:wmo:42051:1,2009-02-04T07:30:00Z,29.6350,-93.6417,2.0,147.8380501,17.47095017,-99999.0,'11111222,11111222,99999999' 
TABS,ioos:station:wmo:42051:1,2009-02-04T08:00:00Z,29.6350,-93.6417,2.0,158.2203219,14.58079902,-99999.0,'11111222,11111222,99999999' 
TABS,ioos:station:wmo:42051:1,2009-02-04T08:30:00Z,29.6350,-93.6417,2.0,170.3131424,13.0155676,-99999.0,'11111222,11111222,99999999' 
TABS,ioos:station:wmo:42051:1,2009-02-04T09:00:00Z,29.6350,-93.6417,2.0,200.6467321,11.06040234,-99999.0,'11111222,11111222,99999999' 
TABS,ioos:station:wmo:42051:1,2009-02-04T09:30:00Z,29.6350,-93.6417,2.0,224.5503159,7.212711002,-99999.0,'11133222,11111222,99999999' 
TABS,ioos:station:wmo:42051:1,2009-02-04T10:00:00Z,29.6350,-93.6417,2.0,254.0929686,6.09331601,-99999.0,'11133222,11111222,99999999' 
TABS,ioos:station:wmo:42051:1,2009-02-04T10:30:00Z,29.6350,-93.6417,2.0,314.4872341,4.737805399,-99999.0,'11133222,11111222,99999999' 
TABS,ioos:station:wmo:42051:1,2009-02-04T11:00:00Z,29.6350,-93.6417,2.0,320.4328429,4.929462445,-99999.0,'11133222,11111222,99999999' 
TABS,ioos:station:wmo:42051:1,2009-02-04T11:30:00Z,29.6350,-93.6417,2.0,313.168995,6.41673593,-99999.0,'11133222,11111222,99999999' 
TABS,ioos:station:wmo:42051:1,2009-02-04T12:00:00Z,29.6350,-93.6417,2.0,281.6584864,7.423132762,-99999.0,'11133222,11111222,99999999' 
TABS,ioos:station:wmo:42051:1,2009-02-04T12:30:00Z,29.6350,-93.6417,2.0,280.0830087,12.45230902,-99999.0,'11111222,11111222,99999999' 
TABS,ioos:station:wmo:42051:1,2009-02-04T13:00:00Z,29.6350,-93.6417,2.0,286.3766467,14.61282998,-99999.0,'11111222,11111222,99999999' 
TABS,ioos:station:wmo:42051:1,2009-02-04T13:30:00Z,29.6350,-93.6417,2.0,275.4658705,18.37352987,-99999.0,'11111222,11111222,99999999' 
TABS,ioos:station:wmo:42051:1,2009-02-04T14:00:00Z,29.6350,-93.6417,2.0,275.1615069,23.34464607,-99999.0,'11111222,11111222,99999999' 
TABS,ioos:station:wmo:42051:1,2009-02-04T14:30:00Z,29.6350,-93.6417,2.0,275.7089608,27.94860462,-99999.0,'11111222,11111222,99999999' 
TABS,ioos:station:wmo:42051:1,2009-02-04T15:00:00Z,29.6350,-93.6417,2.0,275.0307954,27.82718096,-99999.0,'11111222,11111222,99999999' 
TABS,ioos:station:wmo:42051:1,2009-02-04T15:30:00Z,29.6350,-93.6417,2.0,274.7640515,31.3081459,-99999.0,'11111222,11111222,99999999' 
TABS,ioos:station:wmo:42051:1,2009-02-04T16:00:00Z,29.6350,-93.6417,2.0,274.8068219,31.14953772,-99999.0,'11111222,11111222,99999999' 
TABS,ioos:station:wmo:42051:1,2009-02-04T16:30:00Z,29.6350,-93.6417,2.0,270.4947628,34.7712942,-99999.0,'11111222,11111222,99999999' 
TABS,ioos:station:wmo:42051:1,2009-02-04T17:00:00Z,29.6350,-93.6417,2.0,269.8388624,35.65014025,-99999.0,'11111222,11111222,99999999' 
TABS,ioos:station:wmo:42051:1,2009-02-04T17:30:00Z,29.6350,-93.6417,2.0,265.2845108,36.2526868,-99999.0,'11111222,11111222,99999999' 
TABS,ioos:station:wmo:42051:1,2009-02-04T18:00:00Z,29.6350,-93.6417,2.0,266.9266917,35.07042629,-99999.0,'11111222,11111222,99999999' 